,,,PA_Meas_PMT16A,,PR_Meas_QMR101_102,,RH_Meas_QMH101,,SR_Meas_QMS101,,TA_Meas_QMH101,,GenWind,,GenWind,
date,time,status,PA,status,PR,status,RH,status,SR,status,TA,status,DirAvg,status,SpdAvg,
2010-05-13, 00:00:05,VALID,1007.6,VALID,0,VALID,102.269,VALID,0,VALID,25.2708,VALID,80,VALID,0,
2010-05-13, 00:01:05,VALID,1007.56,VALID,0,VALID,102.269,VALID,0,VALID,25.2708,VALID,47,VALID,0,
2010-05-13, 00:02:05,VALID,1007.55,VALID,0,VALID,102.261,VALID,0.105969,VALID,25.3117,VALID,47,VALID,0,
2010-05-13, 00:03:05,VALID,1007.57,VALID,0,VALID,102.261,VALID,0,VALID,25.2903,VALID,47,VALID,0,
2010-05-13, 00:04:05,VALID,1007.54,VALID,0,VALID,102.254,VALID,0,VALID,25.3117,VALID,47,VALID,0,
2010-05-13, 00:05:05,VALID,1007.5,VALID,0,VALID,102.261,VALID,0.105969,VALID,25.3098,VALID,47,VALID,0,
2010-05-13, 00:06:05,VALID,1007.49,VALID,0,VALID,102.254,VALID,0.105969,VALID,25.3098,VALID,47,VALID,0,
2010-05-13, 00:07:05,VALID,1007.45,VALID,0,VALID,102.261,VALID,0.105969,VALID,25.2903,VALID,47,VALID,0,
2010-05-13, 00:08:05,VALID,1007.42,VALID,0,VALID,102.246,VALID,0.105969,VALID,25.3098,VALID,125,VALID,0.410937,
2010-05-13, 00:09:05,VALID,1007.4,VALID,0,VALID,102.246,VALID,0.105969,VALID,25.3098,VALID,125,VALID,0.260547,
2010-05-13, 00:10:05,VALID,1007.36,VALID,0,VALID,102.231,VALID,0,VALID,25.3293,VALID,110,VALID,0.596484,
2010-05-13, 00:11:05,VALID,1007.34,VALID,0,VALID,102.231,VALID,0,VALID,25.3293,VALID,105,VALID,0.451562,
2010-05-13, 00:12:05,VALID,1007.33,VALID,0,VALID,102.246,VALID,0.105969,VALID,25.3702,VALID,105,VALID,0,
2010-05-13, 00:13:05,VALID,1007.31,VALID,0,VALID,102.238,VALID,0,VALID,25.3683,VALID,105,VALID,0.391016,
2010-05-13, 00:14:05,VALID,1007.28,VALID,0,VALID,102.238,VALID,0.105969,VALID,25.3683,VALID,105,VALID,0.152734,
2010-05-13, 00:15:05,VALID,1007.27,VALID,0,VALID,102.238,VALID,0.105969,VALID,25.3877,VALID,105,VALID,0.157031,
2010-05-13, 00:16:05,VALID,1007.27,VALID,0,VALID,102.238,VALID,0.105969,VALID,25.3683,VALID,105,VALID,0.214062,
2010-05-13, 00:17:05,VALID,1007.23,VALID,0,VALID,102.238,VALID,0,VALID,25.3683,VALID,83,VALID,0.373047,
2010-05-13, 00:18:05,VALID,1007.22,VALID,0,VALID,102.216,VALID,0.105969,VALID,25.3683,VALID,72,VALID,0.449609,
2010-05-13, 00:19:05,VALID,1007.2,VALID,0,VALID,102.216,VALID,0,VALID,25.3897,VALID,72,VALID,0.324609,
2010-05-13, 00:20:05,VALID,1007.19,VALID,0,VALID,102.208,VALID,0.105969,VALID,25.4092,VALID,72,VALID,0.307031,
2010-05-13, 00:21:05,VALID,1007.19,VALID,0,VALID,102.193,VALID,0,VALID,25.3897,VALID,67,VALID,0.500391,
2010-05-13, 00:22:05,VALID,1007.15,VALID,0,VALID,102.17,VALID,0,VALID,25.3488,VALID,67,VALID,0.0671875,
2010-05-13, 00:23:05,VALID,1007.17,VALID,0,VALID,102.147,VALID,0,VALID,25.3702,VALID,67,VALID,0,
2010-05-13, 00:24:05,VALID,1007.15,VALID,0,VALID,102.139,VALID,0,VALID,25.3702,VALID,67,VALID,0,
2010-05-13, 00:25:05,VALID,1007.18,VALID,0,VALID,102.132,VALID,0.105969,VALID,25.3702,VALID,47,VALID,0.546875,
2010-05-13, 00:26:05,VALID,1007.15,VALID,0,VALID,102.124,VALID,0.105969,VALID,25.3293,VALID,66,VALID,0.403516,
2010-05-13, 00:27:05,VALID,1007.15,VALID,0,VALID,102.116,VALID,0.105969,VALID,25.3098,VALID,65,VALID,0.542969,
2010-05-13, 00:28:05,VALID,1007.13,VALID,0,VALID,102.116,VALID,0.105969,VALID,25.3312,VALID,65,VALID,0.363672,
2010-05-13, 00:29:05,VALID,1007.1,VALID,0,VALID,102.124,VALID,0.105969,VALID,25.3098,VALID,65,VALID,0,
2010-05-13, 00:30:05,VALID,1007.11,VALID,0,VALID,102.147,VALID,0.105969,VALID,25.2903,VALID,65,VALID,0.275391,
2010-05-13, 00:31:05,VALID,1007.09,VALID,0,VALID,102.162,VALID,0.105969,VALID,25.3117,VALID,65,VALID,0,
2010-05-13, 00:32:05,VALID,1007.07,VALID,0,VALID,102.139,VALID,0.105969,VALID,25.2708,VALID,40,VALID,0.328516,
2010-05-13, 00:33:05,VALID,1007.03,VALID,0,VALID,102.162,VALID,0.105969,VALID,25.2513,VALID,40,VALID,0.248047,
2010-05-13, 00:34:05,VALID,1007.03,VALID,0,VALID,102.139,VALID,0.105969,VALID,25.2318,VALID,15,VALID,0.133203,
2010-05-13, 00:35:05,VALID,1006.98,VALID,0,VALID,102.147,VALID,0,VALID,25.2318,VALID,15,VALID,0.00195313,
2010-05-13, 00:36:05,VALID,1006.98,VALID,0,VALID,102.155,VALID,0.105969,VALID,25.2318,VALID,56,VALID,0.25625,
2010-05-13, 00:37:05,VALID,1006.93,VALID,0,VALID,102.162,VALID,0,VALID,25.1928,VALID,118,VALID,0.773828,
2010-05-13, 00:38:05,VALID,1006.91,VALID,0,VALID,102.177,VALID,0,VALID,25.1928,VALID,119,VALID,0.477344,
2010-05-13, 00:39:05,VALID,1006.93,VALID,0,VALID,102.177,VALID,0,VALID,25.1928,VALID,71,VALID,0.428516,
2010-05-13, 00:40:05,VALID,1006.9,VALID,0,VALID,102.177,VALID,0.105969,VALID,25.1947,VALID,80,VALID,0.165625,
2010-05-13, 00:41:05,VALID,1006.9,VALID,0,VALID,102.185,VALID,0.105969,VALID,25.1538,VALID,80,VALID,0,
2010-05-13, 00:42:05,VALID,1006.9,VALID,0,VALID,102.185,VALID,0.105969,VALID,25.1733,VALID,80,VALID,0,
2010-05-13, 00:43:05,VALID,1006.87,VALID,0,VALID,102.147,VALID,0.105969,VALID,25.1752,VALID,80,VALID,0,
2010-05-13, 00:44:05,VALID,1006.85,VALID,0,VALID,102.162,VALID,0,VALID,25.1733,VALID,80,VALID,0.00195313,
2010-05-13, 00:45:05,VALID,1006.86,VALID,0,VALID,102.162,VALID,0,VALID,25.1947,VALID,80,VALID,0.0816406,
2010-05-13, 00:46:05,VALID,1006.85,VALID,0,VALID,102.185,VALID,0.105969,VALID,25.1538,VALID,80,VALID,0.0703125,
2010-05-13, 00:47:05,VALID,1006.84,VALID,0,VALID,102.155,VALID,0.105969,VALID,25.1752,VALID,51,VALID,0.217578,
2010-05-13, 00:48:05,VALID,1006.83,VALID,0,VALID,102.147,VALID,0,VALID,25.1343,VALID,51,VALID,0.0734375,
2010-05-13, 00:49:05,VALID,1006.84,VALID,0,VALID,102.155,VALID,0.105969,VALID,25.1343,VALID,51,VALID,0,
2010-05-13, 00:50:05,VALID,1006.83,VALID,0,VALID,102.17,VALID,0.105969,VALID,25.1148,VALID,51,VALID,0.00429688,
2010-05-13, 00:51:05,VALID,1006.83,VALID,0,VALID,102.155,VALID,0,VALID,25.1148,VALID,51,VALID,0,
2010-05-13, 00:52:05,VALID,1006.85,VALID,0,VALID,102.155,VALID,0.105969,VALID,25.0954,VALID,51,VALID,0,
2010-05-13, 00:53:05,VALID,1006.84,VALID,0,VALID,102.17,VALID,0,VALID,25.0954,VALID,51,VALID,0,
2010-05-13, 00:54:05,VALID,1006.81,VALID,0,VALID,102.155,VALID,0.105969,VALID,25.0954,VALID,51,VALID,0.0933594,
2010-05-13, 00:55:05,VALID,1006.78,VALID,0,VALID,102.17,VALID,0.105969,VALID,25.0759,VALID,20,VALID,0.266016,
2010-05-13, 00:56:05,VALID,1006.78,VALID,0,VALID,102.162,VALID,0.105969,VALID,25.0759,VALID,39,VALID,0,
2010-05-13, 00:57:05,VALID,1006.76,VALID,0,VALID,102.147,VALID,0,VALID,25.0759,VALID,39,VALID,0.180078,
2010-05-13, 00:58:05,VALID,1006.76,VALID,0,VALID,102.155,VALID,0.105969,VALID,25.0973,VALID,11,VALID,0.694141,
2010-05-13, 00:59:05,VALID,1006.73,VALID,0,VALID,102.155,VALID,0.105969,VALID,25.0759,VALID,3,VALID,0.283594,
2010-05-13, 01:00:05,VALID,1006.73,VALID,0,VALID,102.162,VALID,0.105969,VALID,25.0369,VALID,4,VALID,0.298047,
2010-05-13, 01:01:05,VALID,1006.76,VALID,0,VALID,102.162,VALID,0.105969,VALID,25.0369,VALID,78,VALID,0.512109,
2010-05-13, 01:02:05,VALID,1006.76,VALID,0,VALID,102.155,VALID,0,VALID,25.0407,VALID,76,VALID,0.351563,
2010-05-13, 01:03:05,VALID,1006.81,VALID,0,VALID,102.155,VALID,0,VALID,25.0193,VALID,82,VALID,0.619531,
2010-05-13, 01:04:05,VALID,1006.78,VALID,0,VALID,102.185,VALID,0,VALID,24.9998,VALID,111,VALID,0.717188,
2010-05-13, 01:05:05,VALID,1006.83,VALID,0,VALID,102.17,VALID,0,VALID,24.9998,VALID,85,VALID,0.30625,
2010-05-13, 01:06:05,VALID,1006.85,VALID,0,VALID,102.185,VALID,0,VALID,25.0193,VALID,108,VALID,0.505469,
2010-05-13, 01:07:05,VALID,1006.85,VALID,0,VALID,102.177,VALID,0,VALID,25.0407,VALID,97,VALID,0.717969,
2010-05-13, 01:08:05,VALID,1006.84,VALID,0,VALID,102.185,VALID,0,VALID,25.0193,VALID,105,VALID,0.826563,
2010-05-13, 01:09:05,VALID,1006.84,VALID,0,VALID,102.2,VALID,0,VALID,25.0193,VALID,99,VALID,0.575391,
2010-05-13, 01:10:05,VALID,1006.85,VALID,0,VALID,102.162,VALID,0,VALID,25.0193,VALID,104,VALID,0.552734,
2010-05-13, 01:11:05,VALID,1006.82,VALID,0,VALID,102.155,VALID,0,VALID,25.0388,VALID,74,VALID,0.435547,
2010-05-13, 01:12:05,VALID,1006.82,VALID,0,VALID,102.139,VALID,0,VALID,25.0388,VALID,103,VALID,0.459766,
2010-05-13, 01:13:05,VALID,1006.84,VALID,0,VALID,102.124,VALID,0,VALID,25.0583,VALID,83,VALID,0.787109,
2010-05-13, 01:14:05,VALID,1006.83,VALID,0,VALID,102.101,VALID,0,VALID,25.0388,VALID,81,VALID,0.812109,
2010-05-13, 01:15:05,VALID,1006.82,VALID,0,VALID,102.078,VALID,0,VALID,25.0797,VALID,81,VALID,0.508594,
2010-05-13, 01:16:05,VALID,1006.79,VALID,0,VALID,102.048,VALID,0,VALID,25.0583,VALID,56,VALID,0.566797,
2010-05-13, 01:17:05,VALID,1006.79,VALID,0,VALID,102.025,VALID,0.105969,VALID,25.0583,VALID,50,VALID,0.494531,
2010-05-13, 01:18:05,VALID,1006.76,VALID,0,VALID,101.994,VALID,0,VALID,25.0369,VALID,24,VALID,0.294141,
2010-05-13, 01:19:05,VALID,1006.75,VALID,0,VALID,101.933,VALID,0,VALID,25.0583,VALID,69,VALID,0.500391,
2010-05-13, 01:20:05,VALID,1006.73,VALID,0,VALID,101.949,VALID,0.105969,VALID,25.0174,VALID,69,VALID,0.0644531,
2010-05-13, 01:21:04,VALID,1006.72,VALID,0,VALID,101.933,VALID,0.105969,VALID,25.0174,VALID,69,VALID,0.180469,
2010-05-13, 01:22:04,VALID,1006.74,VALID,0,VALID,101.949,VALID,0.105969,VALID,25.0174,VALID,103,VALID,0.590625,
2010-05-13, 01:23:04,VALID,1006.71,VALID,0,VALID,101.972,VALID,0,VALID,24.9979,VALID,104,VALID,0.046875,
2010-05-13, 01:24:04,VALID,1006.69,VALID,0,VALID,101.964,VALID,0.105969,VALID,24.9784,VALID,80,VALID,0.237891,
2010-05-13, 01:25:04,VALID,1006.65,VALID,0,VALID,101.987,VALID,0,VALID,24.9784,VALID,80,VALID,0.366406,
2010-05-13, 01:26:04,VALID,1006.61,VALID,0,VALID,101.972,VALID,0,VALID,24.9803,VALID,53,VALID,0.250781,
2010-05-13, 01:27:04,VALID,1006.61,VALID,0,VALID,102.002,VALID,0.105969,VALID,24.9375,VALID,73,VALID,0.567187,
2010-05-13, 01:28:04,VALID,1006.62,VALID,0,VALID,101.994,VALID,0,VALID,24.9589,VALID,74,VALID,0.264062,
2010-05-13, 01:29:04,VALID,1006.64,VALID,0,VALID,101.994,VALID,0,VALID,24.9394,VALID,25,VALID,0.466016,
2010-05-13, 01:30:04,VALID,1006.68,VALID,0,VALID,102.002,VALID,0,VALID,24.9608,VALID,25,VALID,0,
2010-05-13, 01:31:04,VALID,1006.7,VALID,0,VALID,102.025,VALID,0.105969,VALID,24.9199,VALID,30,VALID,0.567578,
2010-05-13, 01:32:04,VALID,1006.71,VALID,0,VALID,102.04,VALID,0.105969,VALID,24.9199,VALID,39,VALID,0.4625,
2010-05-13, 01:33:04,VALID,1006.73,VALID,0,VALID,102.048,VALID,0.105969,VALID,24.9004,VALID,92,VALID,0.496484,
2010-05-13, 01:34:04,VALID,1006.7,VALID,0,VALID,102.04,VALID,0.105969,VALID,24.8809,VALID,84,VALID,0.498828,
2010-05-13, 01:35:04,VALID,1006.71,VALID,0,VALID,102.048,VALID,0.105969,VALID,24.8809,VALID,62,VALID,0.217969,
2010-05-13, 01:36:04,VALID,1006.72,VALID,0,VALID,102.071,VALID,0,VALID,24.8809,VALID,63,VALID,0.106641,
2010-05-13, 01:37:04,VALID,1006.7,VALID,0,VALID,102.078,VALID,0.105969,VALID,24.8828,VALID,99,VALID,0.357422,
2010-05-13, 01:38:04,VALID,1006.7,VALID,0,VALID,102.094,VALID,0.105969,VALID,24.8615,VALID,42,VALID,0.1625,
2010-05-13, 01:39:04,VALID,1006.7,VALID,0,VALID,102.116,VALID,0.105969,VALID,24.8615,VALID,53,VALID,0,
2010-05-13, 01:40:04,VALID,1006.71,VALID,0,VALID,102.094,VALID,0.105969,VALID,24.842,VALID,54,VALID,0.136719,
2010-05-13, 01:41:04,VALID,1006.71,VALID,0,VALID,102.109,VALID,0.105969,VALID,24.842,VALID,55,VALID,0.29375,
2010-05-13, 01:42:04,VALID,1006.75,VALID,0,VALID,102.116,VALID,0.105969,VALID,24.842,VALID,150,VALID,0.205859,
2010-05-13, 01:43:04,VALID,1006.73,VALID,0,VALID,102.094,VALID,0,VALID,24.842,VALID,186,VALID,0.425781,
2010-05-13, 01:44:04,VALID,1006.79,VALID,0,VALID,102.094,VALID,0.105969,VALID,24.8225,VALID,266,VALID,0.164063,
2010-05-13, 01:45:04,VALID,1006.82,VALID,0,VALID,102.063,VALID,0.105969,VALID,24.842,VALID,266,VALID,0.0667969,
2010-05-13, 01:46:04,VALID,1006.84,VALID,0,VALID,102.048,VALID,0.105969,VALID,24.842,VALID,266,VALID,0,
2010-05-13, 01:47:04,VALID,1006.83,VALID,0,VALID,102.048,VALID,0,VALID,24.8438,VALID,321,VALID,0.528125,
2010-05-13, 01:48:04,VALID,1006.86,VALID,0,VALID,102.002,VALID,0,VALID,24.8457,VALID,336,VALID,0.214844,
2010-05-13, 01:49:04,VALID,1006.84,VALID,0,VALID,102.017,VALID,0,VALID,24.8438,VALID,336,VALID,0,
2010-05-13, 01:50:04,VALID,1006.85,VALID,0,VALID,101.979,VALID,0,VALID,24.8244,VALID,336,VALID,0,
2010-05-13, 01:51:04,VALID,1006.84,VALID,0,VALID,101.972,VALID,0,VALID,24.8244,VALID,336,VALID,0.124609,
2010-05-13, 01:52:04,VALID,1006.81,VALID,0,VALID,101.964,VALID,0,VALID,24.8244,VALID,336,VALID,0,
2010-05-13, 01:53:04,VALID,1006.77,VALID,0,VALID,101.972,VALID,0,VALID,24.8244,VALID,336,VALID,0,
2010-05-13, 01:54:04,VALID,1006.76,VALID,0,VALID,101.987,VALID,0,VALID,24.8262,VALID,351,VALID,0.312109,
2010-05-13, 01:55:04,VALID,1006.76,VALID,0,VALID,102.002,VALID,0,VALID,24.7854,VALID,57,VALID,0.226172,
2010-05-13, 01:56:04,VALID,1006.76,VALID,0,VALID,102.01,VALID,0,VALID,24.7854,VALID,57,VALID,0,
2010-05-13, 01:57:04,VALID,1006.73,VALID,0,VALID,102.033,VALID,0,VALID,24.7872,VALID,57,VALID,0,
2010-05-13, 01:58:04,VALID,1006.74,VALID,0,VALID,102.033,VALID,0,VALID,24.7464,VALID,57,VALID,0.0046875,
2010-05-13, 01:59:04,VALID,1006.77,VALID,0,VALID,102.063,VALID,0,VALID,24.7483,VALID,57,VALID,0,
2010-05-13, 02:00:04,VALID,1006.77,VALID,0,VALID,102.078,VALID,0,VALID,24.7483,VALID,45,VALID,0,
2010-05-13, 02:01:04,VALID,1006.77,VALID,0,VALID,102.086,VALID,0,VALID,24.7074,VALID,45,VALID,0.0390625,
2010-05-13, 02:02:04,VALID,1006.76,VALID,0,VALID,102.124,VALID,0.105969,VALID,24.725,VALID,45,VALID,0,
2010-05-13, 02:03:04,VALID,1006.75,VALID,0,VALID,102.147,VALID,0.105969,VALID,24.7269,VALID,76,VALID,0.385938,
2010-05-13, 02:04:04,VALID,1006.72,VALID,0,VALID,102.139,VALID,0,VALID,24.7055,VALID,91,VALID,0.467187,
2010-05-13, 02:05:04,VALID,1006.71,VALID,0,VALID,102.147,VALID,0,VALID,24.7055,VALID,86,VALID,0.454688,
2010-05-13, 02:06:04,VALID,1006.69,VALID,0,VALID,102.162,VALID,0.105969,VALID,24.686,VALID,89,VALID,0.446094,
2010-05-13, 02:07:04,VALID,1006.7,VALID,0,VALID,102.17,VALID,0.105969,VALID,24.7055,VALID,89,VALID,0.446875,
2010-05-13, 02:08:04,VALID,1006.65,VALID,0,VALID,102.177,VALID,0,VALID,24.7055,VALID,81,VALID,0.410547,
2010-05-13, 02:09:04,VALID,1006.64,VALID,0,VALID,102.162,VALID,0,VALID,24.7269,VALID,83,VALID,0.884375,
2010-05-13, 02:10:04,VALID,1006.67,VALID,0,VALID,102.155,VALID,0,VALID,24.7055,VALID,55,VALID,0.750391,
2010-05-13, 02:11:04,VALID,1006.66,VALID,0,VALID,102.147,VALID,0,VALID,24.7055,VALID,49,VALID,0.328125,
2010-05-13, 02:12:04,VALID,1006.66,VALID,0,VALID,102.124,VALID,0,VALID,24.7074,VALID,60,VALID,0.448047,
2010-05-13, 02:13:04,VALID,1006.69,VALID,0,VALID,102.132,VALID,0,VALID,24.686,VALID,77,VALID,0.447656,
2010-05-13, 02:14:04,VALID,1006.69,VALID,0,VALID,102.116,VALID,0,VALID,24.7055,VALID,77,VALID,0,
2010-05-13, 02:15:04,VALID,1006.72,VALID,0,VALID,102.124,VALID,0,VALID,24.7074,VALID,71,VALID,0.366406,
2010-05-13, 02:16:04,VALID,1006.72,VALID,0,VALID,102.132,VALID,0,VALID,24.686,VALID,71,VALID,0.34375,
2010-05-13, 02:17:04,VALID,1006.72,VALID,0,VALID,102.101,VALID,0.105969,VALID,24.686,VALID,71,VALID,0,
2010-05-13, 02:18:04,VALID,1006.71,VALID,0,VALID,102.116,VALID,0.105969,VALID,24.686,VALID,50,VALID,0.183984,
2010-05-13, 02:19:04,VALID,1006.69,VALID,0,VALID,102.101,VALID,0,VALID,24.6666,VALID,50,VALID,0,
2010-05-13, 02:20:04,VALID,1006.71,VALID,0,VALID,102.086,VALID,0,VALID,24.6666,VALID,50,VALID,0,
2010-05-13, 02:21:04,VALID,1006.67,VALID,0,VALID,102.094,VALID,0.105969,VALID,24.6666,VALID,333,VALID,0.146875,
2010-05-13, 02:22:04,VALID,1006.67,VALID,0,VALID,102.101,VALID,0,VALID,24.6257,VALID,312,VALID,0,
2010-05-13, 02:23:04,VALID,1006.68,VALID,0,VALID,102.109,VALID,0,VALID,24.6471,VALID,312,VALID,0.00078125,
2010-05-13, 02:24:04,VALID,1006.68,VALID,0,VALID,102.124,VALID,0,VALID,24.6471,VALID,312,VALID,0.0117188,
2010-05-13, 02:25:04,VALID,1006.66,VALID,0,VALID,102.116,VALID,0.105969,VALID,24.6684,VALID,312,VALID,0.0886719,
2010-05-13, 02:26:04,VALID,1006.65,VALID,0,VALID,102.124,VALID,0,VALID,24.6276,VALID,312,VALID,0,
2010-05-13, 02:27:04,VALID,1006.65,VALID,0,VALID,102.139,VALID,0,VALID,24.6489,VALID,317,VALID,0.0929687,
2010-05-13, 02:28:04,VALID,1006.64,VALID,0,VALID,102.132,VALID,0,VALID,24.6294,VALID,319,VALID,0.229297,
2010-05-13, 02:29:04,VALID,1006.62,VALID,0,VALID,102.177,VALID,0,VALID,24.6294,VALID,91,VALID,0.710938,
2010-05-13, 02:30:04,VALID,1006.59,VALID,0,VALID,102.147,VALID,0,VALID,24.6081,VALID,73,VALID,0.453516,
2010-05-13, 02:31:04,VALID,1006.58,VALID,0,VALID,102.147,VALID,0,VALID,24.6081,VALID,73,VALID,0.219531,
2010-05-13, 02:32:04,VALID,1006.59,VALID,0,VALID,102.155,VALID,0,VALID,24.5886,VALID,73,VALID,0,
2010-05-13, 02:33:04,VALID,1006.56,VALID,0,VALID,102.155,VALID,0,VALID,24.6099,VALID,73,VALID,0,
2010-05-13, 02:34:04,VALID,1006.53,VALID,0,VALID,102.193,VALID,0,VALID,24.6099,VALID,29,VALID,0.220703,
2010-05-13, 02:35:04,VALID,1006.52,VALID,0,VALID,102.185,VALID,0,VALID,24.5886,VALID,311,VALID,0.127344,
2010-05-13, 02:36:04,VALID,1006.54,VALID,0,VALID,102.185,VALID,0,VALID,24.5691,VALID,2,VALID,0.275781,
2010-05-13, 02:37:04,VALID,1006.48,VALID,0,VALID,102.17,VALID,0,VALID,24.5886,VALID,2,VALID,0,
2010-05-13, 02:38:04,VALID,1006.45,VALID,0,VALID,102.177,VALID,0,VALID,24.5886,VALID,2,VALID,0,
2010-05-13, 02:39:04,VALID,1006.44,VALID,0,VALID,102.193,VALID,0.105969,VALID,24.6081,VALID,2,VALID,0,
2010-05-13, 02:40:04,VALID,1006.39,VALID,0,VALID,102.216,VALID,0,VALID,24.5886,VALID,2,VALID,0,
2010-05-13, 02:41:04,VALID,1006.36,VALID,0,VALID,102.216,VALID,0,VALID,24.5691,VALID,2,VALID,0,
2010-05-13, 02:42:04,VALID,1006.38,VALID,0,VALID,102.223,VALID,0.105969,VALID,24.5886,VALID,2,VALID,0,
2010-05-13, 02:43:04,VALID,1006.38,VALID,0,VALID,102.238,VALID,0,VALID,24.5691,VALID,360,VALID,0.0246094,
2010-05-13, 02:44:04,VALID,1006.38,VALID,0,VALID,102.231,VALID,0,VALID,24.5905,VALID,355,VALID,0.00351562,
2010-05-13, 02:45:04,VALID,1006.38,VALID,0,VALID,102.238,VALID,0,VALID,24.5691,VALID,355,VALID,0.00585938,
2010-05-13, 02:46:04,VALID,1006.4,VALID,0,VALID,102.269,VALID,0,VALID,24.571,VALID,355,VALID,0,
2010-05-13, 02:47:04,VALID,1006.38,VALID,0,VALID,102.269,VALID,0,VALID,24.5515,VALID,355,VALID,0,
2010-05-13, 02:48:04,VALID,1006.39,VALID,0,VALID,102.261,VALID,0,VALID,24.5515,VALID,355,VALID,0,
2010-05-13, 02:49:04,VALID,1006.39,VALID,0,VALID,102.261,VALID,0,VALID,24.5301,VALID,355,VALID,0.00429688,
2010-05-13, 02:50:04,VALID,1006.41,VALID,0,VALID,102.269,VALID,0,VALID,24.532,VALID,60,VALID,0.145703,
2010-05-13, 02:51:04,VALID,1006.41,VALID,0,VALID,102.292,VALID,0,VALID,24.5515,VALID,60,VALID,0.353516,
2010-05-13, 02:52:04,VALID,1006.4,VALID,0,VALID,102.277,VALID,0,VALID,24.5301,VALID,60,VALID,0.0304688,
2010-05-13, 02:53:04,VALID,1006.41,VALID,0,VALID,102.269,VALID,0,VALID,24.5106,VALID,60,VALID,0.121484,
2010-05-13, 02:54:04,VALID,1006.38,VALID,0,VALID,102.284,VALID,0,VALID,24.5106,VALID,357,VALID,0.4125,
2010-05-13, 02:55:04,VALID,1006.37,VALID,0,VALID,102.292,VALID,0,VALID,24.5515,VALID,357,VALID,0.201953,
2010-05-13, 02:56:04,VALID,1006.37,VALID,0,VALID,102.292,VALID,0,VALID,24.5301,VALID,324,VALID,0.264453,
2010-05-13, 02:57:04,VALID,1006.39,VALID,0,VALID,102.277,VALID,0,VALID,24.5301,VALID,324,VALID,0.146484,
2010-05-13, 02:58:04,VALID,1006.38,VALID,0,VALID,102.292,VALID,0,VALID,24.571,VALID,322,VALID,0.0578125,
2010-05-13, 02:59:04,VALID,1006.36,VALID,0,VALID,102.315,VALID,0,VALID,24.5905,VALID,326,VALID,0,
2010-05-13, 03:00:04,VALID,1006.35,VALID,0,VALID,102.315,VALID,0.105969,VALID,24.5691,VALID,326,VALID,0.000390625,
2010-05-13, 03:01:04,VALID,1006.34,VALID,0,VALID,102.315,VALID,0,VALID,24.5886,VALID,319,VALID,0.219531,
2010-05-13, 03:02:04,VALID,1006.31,VALID,0,VALID,102.338,VALID,0.105969,VALID,24.6081,VALID,357,VALID,0.354688,
2010-05-13, 03:03:04,VALID,1006.3,VALID,0,VALID,102.338,VALID,0.105969,VALID,24.6099,VALID,73,VALID,0.129688,
2010-05-13, 03:04:04,VALID,1006.3,VALID,0,VALID,102.322,VALID,0.105969,VALID,24.6294,VALID,73,VALID,0,
2010-05-13, 03:05:04,VALID,1006.28,VALID,0,VALID,102.299,VALID,0.105969,VALID,24.6276,VALID,73,VALID,0.198437,
2010-05-13, 03:06:04,VALID,1006.32,VALID,0,VALID,102.307,VALID,0.105969,VALID,24.6276,VALID,73,VALID,0,
2010-05-13, 03:07:04,VALID,1006.27,VALID,0,VALID,102.315,VALID,0.105969,VALID,24.6471,VALID,347,VALID,0.0945313,
2010-05-13, 03:08:04,VALID,1006.28,VALID,0,VALID,102.292,VALID,0,VALID,24.6471,VALID,283,VALID,0.614453,
2010-05-13, 03:09:04,VALID,1006.29,VALID,0,VALID,102.277,VALID,0.105969,VALID,24.6684,VALID,301,VALID,0.135937,
2010-05-13, 03:10:04,VALID,1006.27,VALID,0,VALID,102.261,VALID,0.105969,VALID,24.6666,VALID,314,VALID,0.68125,
2010-05-13, 03:11:04,VALID,1006.26,VALID,0,VALID,102.223,VALID,0.105969,VALID,24.686,VALID,287,VALID,0.360938,
2010-05-13, 03:12:04,VALID,1006.24,VALID,0,VALID,102.208,VALID,0,VALID,24.7055,VALID,287,VALID,0.783984,
2010-05-13, 03:13:04,VALID,1006.23,VALID,0,VALID,102.17,VALID,0.105969,VALID,24.7055,VALID,313,VALID,0.585547,
2010-05-13, 03:14:04,VALID,1006.23,VALID,0,VALID,102.109,VALID,0.105969,VALID,24.7445,VALID,311,VALID,0.641406,
2010-05-13, 03:15:04,VALID,1006.22,VALID,0,VALID,102.071,VALID,0.105969,VALID,24.764,VALID,328,VALID,0.326172,
2010-05-13, 03:16:04,VALID,1006.21,VALID,0,VALID,102.01,VALID,0.105969,VALID,24.7445,VALID,311,VALID,0.401953,
2010-05-13, 03:17:04,VALID,1006.21,VALID,0,VALID,101.994,VALID,0.105969,VALID,24.764,VALID,311,VALID,0.228516,
2010-05-13, 03:18:04,VALID,1006.18,VALID,0,VALID,101.994,VALID,0.105969,VALID,24.764,VALID,311,VALID,0.0644531,
2010-05-13, 03:19:04,VALID,1006.19,VALID,0,VALID,101.933,VALID,0.105969,VALID,24.7835,VALID,287,VALID,0.202344,
2010-05-13, 03:20:04,VALID,1006.19,VALID,0,VALID,101.842,VALID,0.105969,VALID,24.7835,VALID,256,VALID,0.573438,
2010-05-13, 03:21:04,VALID,1006.22,VALID,0,VALID,101.766,VALID,0.105969,VALID,24.7835,VALID,198,VALID,0.807813,
2010-05-13, 03:22:04,VALID,1006.23,VALID,0,VALID,101.72,VALID,0.105969,VALID,24.803,VALID,198,VALID,0.970312,
2010-05-13, 03:23:04,VALID,1006.24,VALID,0,VALID,101.697,VALID,0.105969,VALID,24.803,VALID,196,VALID,0.873438,
2010-05-13, 03:24:04,VALID,1006.26,VALID,0,VALID,101.712,VALID,0.211938,VALID,24.8225,VALID,215,VALID,1.07539,
2010-05-13, 03:25:04,VALID,1006.25,VALID,0,VALID,101.651,VALID,0.105969,VALID,24.8225,VALID,205,VALID,1.0918,
2010-05-13, 03:26:04,VALID,1006.26,VALID,0,VALID,101.583,VALID,0.105969,VALID,24.8206,VALID,205,VALID,0.9375,
2010-05-13, 03:27:04,VALID,1006.27,VALID,0,VALID,101.59,VALID,0.105969,VALID,24.842,VALID,199,VALID,1.01523,
2010-05-13, 03:28:04,VALID,1006.36,VALID,0,VALID,101.621,VALID,0.105969,VALID,24.8615,VALID,192,VALID,0.819922,
2010-05-13, 03:29:04,VALID,1006.37,VALID,0,VALID,101.651,VALID,0.105969,VALID,24.8615,VALID,204,VALID,1.37305,
2010-05-13, 03:30:04,VALID,1006.4,VALID,0,VALID,101.628,VALID,0.105969,VALID,24.8809,VALID,211,VALID,1.02773,
2010-05-13, 03:31:04,VALID,1006.44,VALID,0,VALID,101.628,VALID,0.105969,VALID,24.8809,VALID,217,VALID,2.31484,
2010-05-13, 03:32:04,VALID,1006.52,VALID,0,VALID,101.598,VALID,0,VALID,24.8828,VALID,205,VALID,2.14609,
2010-05-13, 03:33:04,VALID,1006.54,VALID,0,VALID,101.697,VALID,0,VALID,24.8828,VALID,191,VALID,2.37812,
2010-05-13, 03:34:04,VALID,1006.58,VALID,0.5,VALID,101.773,VALID,0,VALID,24.8633,VALID,200,VALID,2.91641,
2010-05-13, 03:35:04,VALID,1006.6,VALID,0,VALID,101.834,VALID,0,VALID,24.8244,VALID,192,VALID,2.48438,
2010-05-13, 03:36:04,VALID,1006.63,VALID,0.5,VALID,101.903,VALID,0,VALID,24.8049,VALID,187,VALID,1.79922,
2010-05-13, 03:37:04,VALID,1006.61,VALID,0,VALID,102.01,VALID,0,VALID,24.7659,VALID,156,VALID,2.03516,
2010-05-13, 03:38:04,VALID,1006.58,VALID,0,VALID,102.101,VALID,0,VALID,24.7269,VALID,171,VALID,1.91719,
2010-05-13, 03:39:04,VALID,1006.6,VALID,0,VALID,102.155,VALID,0,VALID,24.686,VALID,152,VALID,1.20977,
2010-05-13, 03:40:04,VALID,1006.54,VALID,0,VALID,102.208,VALID,0,VALID,24.6879,VALID,148,VALID,1.34961,
2010-05-13, 03:41:04,VALID,1006.53,VALID,0.5,VALID,102.238,VALID,0,VALID,24.7074,VALID,118,VALID,1.33281,
2010-05-13, 03:42:04,VALID,1006.43,VALID,0,VALID,102.277,VALID,0,VALID,24.7074,VALID,110,VALID,1.86914,